| time (UTC) | temp F | wind direction | speed knots | gust knots | rain 1hr in | rain 24hr in | rain mn in | humidity % | barometer mb |
| 20260509150504 | 73 | 128 | 0.0 | 0.9 | 0.00 | 0.00 | 0.00 | 79 | 1013.7 |
| 20260509150007 | 73 | 158 | 0.0 | 0.9 | 0.00 | 0.00 | 0.00 | 79 | 1013.8 |
| 20260509145505 | 73 | 184 | 0.0 | 0.9 | 0.00 | 0.00 | 0.00 | 79 | 1013.8 |
| 20260509145005 | 73 | 238 | 0.0 | 0.0 | 0.00 | 0.00 | 0.00 | 80 | 1013.7 |
| 20260509144512 | 73 | 238 | 0.0 | 0.9 | 0.00 | 0.00 | 0.00 | 80 | 1013.6 |
| 20260509144007 | 73 | 238 | 0.0 | 0.9 | 0.00 | 0.00 | 0.00 | 79 | 1013.6 |
| 20260509143506 | 73 | 277 | 0.0 | 0.9 | 0.00 | 0.00 | 0.00 | 80 | 1013.5 |
| 20260509143018 | 73 | 170 | 0.0 | 0.9 | 0.00 | 0.00 | 0.00 | 80 | 1013.5 |
| 20260509142508 | 73 | 232 | 0.0 | 0.0 | 0.00 | 0.00 | 0.00 | 80 | 1013.4 |
| 20260509142009 | 73 | 92 | 0.0 | 0.0 | 0.00 | 0.00 | 0.00 | 81 | 1013.2 |
| 20260509141530 | 73 | 92 | 0.0 | 0.0 | 0.00 | 0.00 | 0.00 | 80 | 1013.3 |
| 20260509141010 | 73 | 92 | 0.0 | 0.0 | 0.00 | 0.00 | 0.00 | 81 | 1013.2 |
| 20260509140510 | 73 | 53 | 0.0 | 0.0 | 0.00 | 0.00 | 0.00 | 81 | 1013.2 |
| 20260509140006 | 72 | 53 | 0.0 | 0.0 | 0.00 | 0.00 | 0.00 | 80 | 1013.4 |
| 20260509135505 | 72 | 53 | 0.0 | 0.0 | 0.00 | 0.00 | 0.00 | 81 | 1013.4 |
| 20260509135006 | 72 | 53 | 0.0 | 0.0 | 0.00 | 0.00 | 0.00 | 81 | 1013.3 |
| 20260509134507 | 72 | 53 | 0.0 | 0.0 | 0.00 | 0.00 | 0.00 | 82 | 1013.4 |
| 20260509134005 | 71 | 53 | 0.0 | 0.0 | 0.00 | 0.00 | 0.00 | 81 | 1013.3 |
| 20260509133505 | 71 | 53 | 0.0 | 0.0 | 0.00 | 0.00 | 0.00 | 82 | 1013.4 |
| 20260509133015 | 71 | 53 | 0.0 | 0.0 | 0.00 | 0.00 | 0.00 | 82 | 1013.5 |
| 20260509132507 | 71 | 53 | 0.0 | 0.0 | 0.00 | 0.00 | 0.00 | 82 | 1013.4 |
| 20260509132007 | 71 | 53 | 0.0 | 0.0 | 0.00 | 0.00 | 0.00 | 82 | 1013.6 |
| 20260509131521 | 71 | 53 | 0.0 | 0.0 | 0.00 | 0.00 | 0.00 | 82 | 1013.7 |
| 20260509131011 | 70 | 53 | 0.0 | 0.0 | 0.00 | 0.00 | 0.00 | 83 | 1013.7 |
| 20260509130509 | 70 | 53 | 0.0 | 0.0 | 0.00 | 0.00 | 0.00 | 83 | 1013.7 |
| 20260509130024 | 70 | 53 | 0.0 | 0.0 | 0.00 | 0.00 | 0.00 | 83 | 1013.7 |
| 20260509125512 | 70 | 53 | 0.0 | 0.0 | 0.00 | 0.00 | 0.00 | 83 | 1013.7 |
| 20260509125012 | 70 | 53 | 0.0 | 0.0 | 0.00 | 0.00 | 0.00 | 83 | 1013.7 |
| 20260509124506 | 70 | 53 | 0.0 | 0.0 | 0.00 | 0.00 | 0.00 | 84 | 1013.8 |
| 20260509124007 | 69 | 27 | 0.0 | 0.0 | 0.00 | 0.00 | 0.00 | 84 | 1013.8 |
| 20260509123507 | 69 | 27 | 0.0 | 0.0 | 0.00 | 0.00 | 0.00 | 85 | 1013.8 |
| 20260509123012 | 69 | 30 | 0.0 | 0.0 | 0.00 | 0.00 | 0.00 | 86 | 1013.8 |
| 20260509122505 | 68 | 22 | 0.0 | 0.0 | 0.00 | 0.00 | 0.00 | 86 | 1013.8 |
| 20260509122008 | 68 | 285 | 0.0 | 0.0 | 0.00 | 0.00 | 0.00 | 87 | 1013.8 |
| 20260509121517 | 68 | 285 | 0.0 | 0.0 | 0.00 | 0.00 | 0.00 | 87 | 1013.7 |
| 20260509121010 | 67 | 285 | 0.0 | 0.9 | 0.00 | 0.00 | 0.00 | 87 | 1013.8 |
| 20260509120509 | 67 | 285 | 0.0 | 0.9 | 0.00 | 0.00 | 0.00 | 88 | 1013.6 |
| 20260509120023 | 67 | 285 | 0.0 | 0.9 | 0.00 | 0.00 | 0.00 | 89 | 1013.5 |
| 20260509115507 | 66 | 285 | 0.0 | 0.9 | 0.00 | 0.00 | 0.00 | 89 | 1013.4 |
| 20260509115012 | 65 | 285 | 0.0 | 0.0 | 0.00 | 0.00 | 0.00 | 90 | 1013.4 |
| 20260509114529 | 65 | 285 | 0.0 | 0.0 | 0.00 | 0.00 | 0.00 | 90 | 1013.3 |
| 20260509114010 | 65 | 285 | 0.0 | 0.0 | 0.00 | 0.00 | 0.00 | 89 | 1013.2 |
| 20260509113510 | 65 | 285 | 0.0 | 0.0 | 0.00 | 0.00 | 0.00 | 89 | 1013.2 |
| 20260509113008 | 64 | 285 | 0.0 | 0.0 | 0.00 | 0.00 | 0.00 | 89 | 1013.4 |
| 20260509112505 | 64 | 285 | 0.0 | 0.0 | 0.00 | 0.00 | 0.00 | 89 | 1013.3 |
| 20260509112006 | 64 | 285 | 0.0 | 0.0 | 0.00 | 0.00 | 0.00 | 89 | 1013.2 |
| 20260509111515 | 64 | 285 | 0.0 | 0.9 | 0.00 | 0.00 | 0.00 | 89 | 1013.2 |
| 20260509111007 | 64 | 285 | 0.0 | 0.9 | 0.00 | 0.00 | 0.00 | 88 | 1013.1 |
| 20260509110510 | 64 | 5 | 0.0 | 0.0 | 0.00 | 0.00 | 0.00 | 88 | 1013.2 |
| 20260509110020 | 64 | 5 | 0.0 | 0.0 | 0.00 | 0.00 | 0.00 | 88 | 1013.0 |
| 20260509105507 | 64 | 5 | 0.0 | 0.0 | 0.00 | 0.00 | 0.00 | 88 | 1013.1 |
| 20260509105007 | 64 | 5 | 0.0 | 0.0 | 0.00 | 0.00 | 0.00 | 88 | 1012.9 |
| 20260509104522 | 64 | 5 | 0.0 | 0.0 | 0.00 | 0.00 | 0.00 | 87 | 1012.8 |
| 20260509104008 | 64 | 5 | 0.0 | 0.0 | 0.00 | 0.00 | 0.00 | 87 | 1012.8 |
| 20260509103508 | 64 | 5 | 0.0 | 0.0 | 0.00 | 0.00 | 0.00 | 87 | 1012.8 |
| 20260509103025 | 64 | 5 | 0.0 | 0.0 | 0.00 | 0.00 | 0.00 | 87 | 1012.6 |
| 20260509102509 | 64 | 5 | 0.0 | 0.0 | 0.00 | 0.00 | 0.00 | 87 | 1012.5 |
| 20260509102011 | 64 | 5 | 0.0 | 0.0 | 0.00 | 0.00 | 0.00 | 87 | 1012.5 |
| 20260509101514 | 64 | 5 | 0.0 | 0.0 | 0.00 | 0.00 | 0.00 | 87 | 1012.6 |
| 20260509101003 | 64 | 5 | 0.0 | 0.0 | 0.00 | 0.00 | 0.00 | 87 | 1012.7 |
| 20260509100504 | 64 | 5 | 0.0 | 0.0 | 0.00 | 0.00 | 0.00 | 87 | 1012.5 |
| 20260509100020 | 65 | 5 | 0.0 | 0.0 | 0.00 | 0.00 | 0.00 | 87 | 1012.5 |
| 20260509095510 | 65 | 5 | 0.0 | 0.0 | 0.00 | 0.00 | 0.00 | 87 | 1012.7 |
| 20260509095010 | 65 | 5 | 0.0 | 0.0 | 0.00 | 0.00 | 0.00 | 87 | 1012.8 |
| 20260509094526 | 65 | 5 | 0.0 | 0.0 | 0.00 | 0.00 | 0.00 | 87 | 1012.7 |
| 20260509094008 | 65 | 5 | 0.0 | 0.0 | 0.00 | 0.00 | 0.00 | 87 | 1012.6 |
| 20260509093508 | 65 | 5 | 0.0 | 0.0 | 0.00 | 0.00 | 0.00 | 86 | 1012.4 |
| 20260509093026 | 65 | 5 | 0.0 | 0.0 | 0.00 | 0.00 | 0.00 | 86 | 1012.5 |
| 20260509092510 | 65 | 5 | 0.0 | 0.0 | 0.00 | 0.00 | 0.00 | 86 | 1012.6 |
| 20260509092010 | 65 | 5 | 0.0 | 0.0 | 0.00 | 0.00 | 0.00 | 86 | 1012.6 |
| 20260509091526 | 65 | 5 | 0.0 | 0.0 | 0.00 | 0.00 | 0.00 | 85 | 1012.9 |
| 20260509091011 | 65 | 5 | 0.0 | 0.0 | 0.00 | 0.00 | 0.00 | 85 | 1012.9 |
| 20260509090510 | 65 | 5 | 0.0 | 0.0 | 0.00 | 0.00 | 0.00 | 85 | 1013.0 |
| 20260509090018 | 65 | 5 | 0.0 | 0.0 | 0.00 | 0.00 | 0.00 | 85 | 1013.0 |
| 20260509085503 | 65 | 5 | 0.0 | 0.0 | 0.00 | 0.00 | 0.00 | 85 | 1012.8 |
| 20260509085008 | 65 | 5 | 0.0 | 0.0 | 0.00 | 0.00 | 0.00 | 85 | 1013.0 |
| 20260509084520 | 65 | 5 | 0.0 | 0.0 | 0.00 | 0.00 | 0.00 | 85 | 1012.9 |
| 20260509084009 | 65 | 5 | 0.0 | 0.0 | 0.00 | 0.00 | 0.00 | 85 | 1012.8 |
| 20260509083505 | 65 | 5 | 0.0 | 0.9 | 0.00 | 0.00 | 0.00 | 85 | 1012.9 |
| 20260509083026 | 65 | 5 | 0.0 | 0.9 | 0.00 | 0.00 | 0.00 | 86 | 1013.1 |
| 20260509082509 | 65 | 5 | 0.0 | 0.9 | 0.00 | 0.00 | 0.00 | 86 | 1013.2 |
| 20260509082008 | 65 | 5 | 0.0 | 0.9 | 0.00 | 0.00 | 0.00 | 86 | 1013.2 |
| 20260509081529 | 65 | 5 | 0.0 | 0.9 | 0.00 | 0.00 | 0.00 | 86 | 1013.2 |
| 20260509081009 | 65 | 5 | 0.0 | 0.0 | 0.00 | 0.00 | 0.00 | 85 | 1013.1 |
| 20260509080508 | 65 | 5 | 0.0 | 0.0 | 0.00 | 0.00 | 0.00 | 85 | 1012.8 |
| 20260509080026 | 65 | 5 | 0.0 | 0.0 | 0.00 | 0.00 | 0.00 | 85 | 1013.0 |
| 20260509075507 | 66 | 5 | 0.0 | 0.0 | 0.00 | 0.00 | 0.00 | 85 | 1013.2 |
| 20260509075011 | 66 | 5 | 0.0 | 0.0 | 0.00 | 0.00 | 0.00 | 85 | 1013.2 |
| 20260509074520 | 66 | 5 | 0.0 | 0.0 | 0.00 | 0.00 | 0.00 | 85 | 1013.3 |
| 20260509074007 | 66 | 5 | 0.0 | 0.9 | 0.00 | 0.00 | 0.00 | 85 | 1013.6 |
| 20260509073513 | 66 | 5 | 0.0 | 0.9 | 0.00 | 0.00 | 0.00 | 85 | 1013.5 |
| 20260509073033 | 66 | 5 | 0.0 | 0.0 | 0.00 | 0.00 | 0.00 | 85 | 1013.2 |
| 20260509072504 | 66 | 5 | 0.0 | 0.0 | 0.00 | 0.00 | 0.00 | 84 | 1013.2 |
| 20260509072002 | 66 | 5 | 0.0 | 0.0 | 0.00 | 0.00 | 0.00 | 84 | 1013.0 |
| 20260509071507 | 66 | 5 | 0.0 | 1.7 | 0.00 | 0.00 | 0.00 | 84 | 1012.8 |
| 20260509071002 | 66 | 5 | 0.0 | 1.7 | 0.00 | 0.00 | 0.00 | 84 | 1012.7 |
| 20260509070502 | 66 | 55 | 0.0 | 0.0 | 0.00 | 0.00 | 0.00 | 84 | 1012.7 |
| 20260509070010 | 66 | 55 | 0.0 | 0.0 | 0.00 | 0.00 | 0.00 | 84 | 1012.9 |
| 20260509065505 | 66 | 55 | 0.0 | 0.0 | 0.00 | 0.00 | 0.00 | 84 | 1013.1 |
| 20260509065006 | 66 | 55 | 0.0 | 0.0 | 0.00 | 0.00 | 0.00 | 83 | 1013.2 |
| 20260509064515 | 67 | 55 | 0.0 | 0.9 | 0.00 | 0.00 | 0.00 | 83 | 1013.3 |
| 20260509064011 | 67 | 55 | 0.0 | 0.9 | 0.00 | 0.00 | 0.00 | 83 | 1013.4 |
| 20260509063509 | 67 | 55 | 0.0 | 0.9 | 0.00 | 0.00 | 0.00 | 82 | 1013.6 |
| 20260509063028 | 67 | 55 | 0.0 | 0.0 | 0.00 | 0.00 | 0.00 | 82 | 1013.6 |
| 20260509062512 | 67 | 55 | 0.0 | 0.9 | 0.00 | 0.00 | 0.00 | 81 | 1013.8 |
| 20260509062010 | 67 | 55 | 0.0 | 0.9 | 0.00 | 0.00 | 0.00 | 81 | 1013.9 |
| 20260509061526 | 67 | 55 | 0.0 | 1.7 | 0.00 | 0.00 | 0.00 | 81 | 1013.7 |
| 20260509061004 | 67 | 55 | 0.0 | 1.7 | 0.00 | 0.00 | 0.00 | 81 | 1013.4 |
| 20260509060502 | 67 | 55 | 0.0 | 1.7 | 0.00 | 0.00 | 0.00 | 81 | 1013.6 |
| 20260509060007 | 67 | 24 | 0.0 | 0.9 | 0.00 | 0.00 | 0.00 | 81 | 1013.8 |
| 20260509055502 | 67 | 18 | 0.0 | 0.9 | 0.00 | 0.00 | 0.00 | 81 | 1014.2 |
| 20260509055006 | 66 | 18 | 0.0 | 0.0 | 0.00 | 0.00 | 0.00 | 81 | 1013.9 |
| 20260509054511 | 66 | 18 | 0.0 | 0.0 | 0.00 | 0.00 | 0.00 | 81 | 1013.9 |
| 20260509054008 | 66 | 18 | 0.0 | 0.9 | 0.00 | 0.00 | 0.00 | 81 | 1013.8 |
| 20260509053509 | 66 | 18 | 0.0 | 0.9 | 0.00 | 0.00 | 0.00 | 81 | 1013.9 |
| 20260509053029 | 66 | 5 | 0.0 | 0.0 | 0.00 | 0.00 | 0.00 | 82 | 1014.0 |
| 20260509052506 | 66 | 5 | 0.0 | 0.0 | 0.00 | 0.00 | 0.00 | 81 | 1014.3 |
| 20260509052013 | 66 | 5 | 0.0 | 0.0 | 0.00 | 0.00 | 0.00 | 80 | 1014.5 |
| 20260509051523 | 66 | 5 | 0.0 | 0.0 | 0.00 | 0.00 | 0.00 | 80 | 1014.8 |
| 20260509051007 | 66 | 5 | 0.0 | 0.0 | 0.00 | 0.00 | 0.00 | 80 | 1015.0 |
| 20260509050511 | 66 | 5 | 0.0 | 0.0 | 0.00 | 0.00 | 0.00 | 80 | 1015.1 |
| 20260509050024 | 66 | 5 | 0.0 | 0.0 | 0.00 | 0.00 | 0.00 | 80 | 1015.2 |
| 20260509045503 | 66 | 5 | 0.0 | 0.0 | 0.00 | 0.00 | 0.00 | 80 | 1015.3 |
| 20260509045002 | 66 | 5 | 0.0 | 0.0 | 0.00 | 0.00 | 0.00 | 79 | 1015.4 |
| 20260509044509 | 66 | 5 | 0.0 | 0.0 | 0.00 | 0.00 | 0.00 | 79 | 1015.2 |
| 20260509044009 | 66 | 5 | 0.0 | 0.0 | 0.00 | 0.00 | 0.00 | 79 | 1015.3 |
| 20260509043505 | 65 | 5 | 0.0 | 1.7 | 0.00 | 0.00 | 0.00 | 80 | 1015.2 |
| 20260509043035 | 65 | 5 | 0.0 | 1.7 | 0.00 | 0.00 | 0.00 | 80 | 1015.1 |
| 20260509042504 | 65 | 37 | 0.0 | 0.9 | 0.00 | 0.00 | 0.00 | 80 | 1014.7 |
| 20260509042011 | 65 | 37 | 0.0 | 0.0 | 0.00 | 0.00 | 0.00 | 80 | 1014.8 |
| 20260509041520 | 65 | 37 | 0.0 | 0.0 | 0.00 | 0.00 | 0.00 | 80 | 1015.1 |
| 20260509041011 | 65 | 37 | 0.0 | 0.0 | 0.00 | 0.00 | 0.00 | 79 | 1015.4 |
| 20260509040512 | 65 | 37 | 0.0 | 0.0 | 0.00 | 0.00 | 0.00 | 79 | 1015.6 |
| 20260509040027 | 65 | 37 | 0.0 | 0.0 | 0.00 | 0.00 | 0.00 | 79 | 1015.8 |
| 20260509035516 | 65 | 37 | 0.0 | 0.0 | 0.00 | 0.00 | 0.00 | 79 | 1015.7 |
| 20260509035012 | 65 | 37 | 0.0 | 0.0 | 0.00 | 0.00 | 0.00 | 79 | 1015.8 |
| 20260509034527 | 65 | 37 | 0.0 | 0.0 | 0.00 | 0.00 | 0.00 | 78 | 1016.0 |
| 20260509034005 | 65 | 37 | 0.0 | 0.0 | 0.00 | 0.00 | 0.00 | 78 | 1015.9 |
| 20260509033505 | 65 | 37 | 0.0 | 0.0 | 0.00 | 0.00 | 0.00 | 78 | 1015.9 |
| 20260509033010 | 65 | 37 | 0.0 | 0.0 | 0.00 | 0.00 | 0.00 | 78 | 1015.9 |
| 20260509032506 | 65 | 37 | 0.0 | 0.0 | 0.00 | 0.00 | 0.00 | 78 | 1015.8 |
| 20260509032008 | 65 | 37 | 0.0 | 0.0 | 0.00 | 0.00 | 0.00 | 77 | 1015.9 |
| 20260509031518 | 65 | 37 | 0.0 | 0.0 | 0.00 | 0.00 | 0.00 | 77 | 1016.0 |
| 20260509031011 | 65 | 37 | 0.0 | 0.0 | 0.00 | 0.00 | 0.00 | 77 | 1016.0 |
| 20260509030508 | 65 | 37 | 0.0 | 0.0 | 0.00 | 0.00 | 0.00 | 77 | 1016.0 |
| 20260509030020 | 65 | 37 | 0.0 | 0.0 | 0.00 | 0.00 | 0.00 | 77 | 1016.0 |
| 20260509025507 | 65 | 37 | 0.0 | 0.0 | 0.00 | 0.00 | 0.00 | 77 | 1016.0 |
| 20260509025011 | 65 | 37 | 0.0 | 0.9 | 0.00 | 0.00 | 0.00 | 77 | 1016.2 |
| 20260509024526 | 65 | 37 | 0.0 | 0.9 | 0.00 | 0.00 | 0.00 | 76 | 1016.1 |
| 20260509024011 | 65 | 37 | 0.0 | 0.9 | 0.00 | 0.00 | 0.00 | 76 | 1015.9 |
| 20260509023510 | 65 | 37 | 0.0 | 0.0 | 0.00 | 0.00 | 0.00 | 75 | 1015.8 |
| 20260509023027 | 65 | 37 | 0.0 | 0.0 | 0.00 | 0.00 | 0.00 | 75 | 1015.8 |
| 20260509022504 | 65 | 37 | 0.0 | 0.0 | 0.00 | 0.00 | 0.00 | 75 | 1015.7 |
| 20260509022006 | 65 | 37 | 0.0 | 0.0 | 0.00 | 0.00 | 0.00 | 75 | 1015.7 |
| 20260509021514 | 65 | 37 | 0.0 | 0.0 | 0.00 | 0.00 | 0.00 | 75 | 1015.6 |
| 20260509021007 | 65 | 37 | 0.0 | 0.0 | 0.00 | 0.00 | 0.00 | 75 | 1015.6 |
| 20260509020509 | 65 | 37 | 0.0 | 0.0 | 0.00 | 0.00 | 0.00 | 75 | 1015.5 |
| 20260509020019 | 66 | 37 | 0.0 | 0.0 | 0.00 | 0.00 | 0.00 | 74 | 1015.8 |
| 20260509015507 | 66 | 37 | 0.0 | 0.0 | 0.00 | 0.00 | 0.00 | 74 | 1015.8 |
| 20260509015008 | 66 | 37 | 0.0 | 0.0 | 0.00 | 0.00 | 0.00 | 74 | 1015.7 |
| 20260509014528 | 66 | 37 | 0.0 | 0.0 | 0.00 | 0.00 | 0.00 | 74 | 1015.7 |
| 20260509014007 | 66 | 37 | 0.0 | 0.0 | 0.00 | 0.00 | 0.00 | 73 | 1015.6 |
| 20260509013512 | 66 | 37 | 0.0 | 0.0 | 0.00 | 0.00 | 0.00 | 73 | 1015.6 |
| 20260509013025 | 66 | 37 | 0.0 | 0.0 | 0.00 | 0.00 | 0.00 | 73 | 1015.5 |
| 20260509012510 | 66 | 37 | 0.0 | 0.0 | 0.00 | 0.00 | 0.00 | 73 | 1015.4 |
| 20260509012010 | 66 | 37 | 0.0 | 0.0 | 0.00 | 0.00 | 0.00 | 72 | 1015.5 |
| 20260509011524 | 66 | 37 | 0.0 | 0.0 | 0.00 | 0.00 | 0.00 | 73 | 1015.6 |
| 20260509011008 | 66 | 37 | 0.0 | 0.0 | 0.00 | 0.00 | 0.00 | 72 | 1015.7 |
| 20260509010507 | 67 | 37 | 0.0 | 0.0 | 0.00 | 0.00 | 0.00 | 72 | 1015.5 |
| 20260509010025 | 67 | 37 | 0.0 | 0.9 | 0.00 | 0.00 | 0.00 | 72 | 1015.5 |
| 20260509005508 | 67 | 37 | 0.0 | 0.9 | 0.00 | 0.00 | 0.00 | 71 | 1015.6 |
| 20260509005007 | 67 | 37 | 0.0 | 1.7 | 0.00 | 0.00 | 0.00 | 71 | 1015.4 |
| 20260509004523 | 67 | 37 | 0.0 | 1.7 | 0.00 | 0.00 | 0.00 | 71 | 1015.4 |
| 20260509004010 | 67 | 275 | 0.0 | 0.9 | 0.00 | 0.00 | 0.00 | 71 | 1015.4 |
| 20260509003509 | 67 | 94 | 0.0 | 0.9 | 0.00 | 0.00 | 0.00 | 71 | 1015.4 |
| 20260509003025 | 67 | 94 | 0.0 | 1.7 | 0.00 | 0.00 | 0.00 | 70 | 1015.3 |
| 20260509002508 | 67 | 94 | 0.0 | 1.7 | 0.00 | 0.00 | 0.00 | 70 | 1015.1 |
| 20260509002010 | 67 | 146 | 0.0 | 1.7 | 0.00 | 0.00 | 0.00 | 70 | 1015.1 |
| 20260509001529 | 67 | 76 | 0.0 | 2.6 | 0.00 | 0.00 | 0.00 | 70 | 1015.0 |
| 20260509001009 | 67 | 94 | 0.0 | 2.6 | 0.00 | 0.00 | 0.00 | 70 | 1015.0 |
| 20260509000506 | 67 | 94 | 0.0 | 2.6 | 0.00 | 0.00 | 0.00 | 69 | 1015.0 |
| 20260509000027 | 67 | 43 | 0.0 | 1.7 | 0.00 | 0.00 | 0.00 | 69 | 1015.0 |
| 20260508235508 | 67 | 47 | 0.0 | 1.7 | 0.00 | 0.00 | 0.00 | 70 | 1015.0 |
| 20260508235007 | 67 | 47 | 0.0 | 1.7 | 0.00 | 0.00 | 0.00 | 69 | 1015.0 |
| 20260508234518 | 67 | 69 | 0.0 | 3.5 | 0.00 | 0.00 | 0.00 | 69 | 1014.9 |
| 20260508234008 | 67 | 65 | 0.0 | 3.5 | 0.00 | 0.00 | 0.00 | 69 | 1014.9 |
| 20260508233508 | 67 | 53 | 0.0 | 2.6 | 0.00 | 0.00 | 0.00 | 69 | 1014.8 |
| 20260508233026 | 67 | 233 | 0.0 | 1.7 | 0.00 | 0.00 | 0.00 | 69 | 1014.7 |
| 20260508232508 | 67 | 234 | 0.0 | 2.6 | 0.00 | 0.00 | 0.00 | 69 | 1014.8 |
| 20260508232010 | 67 | 59 | 0.0 | 3.5 | 0.00 | 0.00 | 0.00 | 69 | 1014.9 |
| 20260508231524 | 67 | 31 | 0.0 | 3.5 | 0.00 | 0.00 | 0.00 | 69 | 1015.1 |
| 20260508231013 | 68 | 120 | 0.0 | 1.7 | 0.00 | 0.00 | 0.00 | 69 | 1015.1 |
| 20260508230510 | 68 | 70 | 0.0 | 1.7 | 0.00 | 0.00 | 0.00 | 69 | 1015.0 |
| 20260508230027 | 68 | 84 | 0.0 | 1.7 | 0.00 | 0.00 | 0.00 | 69 | 1015.0 |
| 20260508225511 | 68 | 84 | 0.0 | 3.5 | 0.00 | 0.00 | 0.00 | 70 | 1015.0 |
| 20260508225016 | 67 | 78 | 0.0 | 4.3 | 0.00 | 0.00 | 0.00 | 69 | 1015.0 |
| 20260508224529 | 68 | 5 | 0.0 | 4.3 | 0.00 | 0.00 | 0.00 | 70 | 1014.8 |
| 20260508224009 | 68 | 78 | 0.9 | 2.6 | 0.00 | 0.00 | 0.00 | 70 | 1014.6 |
| 20260508223509 | 68 | 49 | 0.0 | 2.6 | 0.00 | 0.00 | 0.00 | 69 | 1014.9 |
| 20260508223018 | 68 | 74 | 0.0 | 2.6 | 0.00 | 0.00 | 0.00 | 70 | 1014.9 |
| 20260508222512 | 68 | 73 | 0.0 | 2.6 | 0.00 | 0.00 | 0.00 | 70 | 1014.7 |
| 20260508222010 | 68 | 94 | 0.0 | 1.7 | 0.00 | 0.00 | 0.00 | 70 | 1014.7 |
| 20260508221525 | 68 | 96 | 0.0 | 2.6 | 0.00 | 0.00 | 0.00 | 69 | 1014.9 |
| 20260508221011 | 68 | 100 | 0.0 | 2.6 | 0.00 | 0.00 | 0.00 | 69 | 1015.0 |
| 20260508220507 | 68 | 72 | 0.0 | 1.7 | 0.00 | 0.00 | 0.00 | 70 | 1015.1 |
| 20260508220026 | 68 | 67 | 0.0 | 1.7 | 0.00 | 0.00 | 0.00 | 69 | 1015.0 |
| 20260508215509 | 68 | 88 | 0.0 | 1.7 | 0.00 | 0.00 | 0.00 | 69 | 1014.7 |
| 20260508215013 | 68 | 76 | 0.0 | 2.6 | 0.00 | 0.00 | 0.00 | 69 | 1014.8 |
| 20260508214532 | 68 | 93 | 0.9 | 2.6 | 0.00 | 0.00 | 0.00 | 69 | 1014.9 |
| 20260508214008 | 68 | 82 | 0.0 | 2.6 | 0.00 | 0.00 | 0.00 | 68 | 1014.8 |
| 20260508213507 | 69 | 78 | 0.0 | 2.6 | 0.00 | 0.00 | 0.00 | 68 | 1014.9 |
| 20260508213026 | 69 | 51 | 0.0 | 1.7 | 0.00 | 0.00 | 0.00 | 68 | 1015.0 |
| 20260508212509 | 68 | 94 | 0.0 | 3.5 | 0.00 | 0.00 | 0.00 | 68 | 1015.2 |
| 20260508212014 | 68 | 200 | 0.0 | 3.5 | 0.00 | 0.00 | 0.00 | 68 | 1015.3 |
| 20260508211524 | 68 | 111 | 0.0 | 3.5 | 0.00 | 0.00 | 0.00 | 68 | 1015.2 |
| 20260508211010 | 68 | 71 | 0.9 | 4.3 | 0.00 | 0.00 | 0.00 | 69 | 1015.1 |
| 20260508210511 | 68 | 57 | 0.0 | 4.3 | 0.00 | 0.00 | 0.00 | 68 | 1015.0 |
| 20260508210033 | 68 | 132 | 0.9 | 3.5 | 0.00 | 0.00 | 0.00 | 68 | 1014.8 |
| 20260508205516 | 68 | 98 | 0.9 | 2.6 | 0.00 | 0.00 | 0.00 | 68 | 1014.8 |
| 20260508205012 | 68 | 69 | 0.0 | 3.5 | 0.00 | 0.00 | 0.00 | 67 | 1014.9 |
| 20260508204532 | 68 | 105 | 0.0 | 5.2 | 0.00 | 0.00 | 0.00 | 67 | 1014.8 |
| 20260508204011 | 69 | 55 | 0.9 | 5.2 | 0.00 | 0.00 | 0.00 | 66 | 1014.8 |
| 20260508203509 | 69 | 55 | 0.9 | 3.5 | 0.00 | 0.00 | 0.00 | 67 | 1014.8 |
| 20260508203032 | 69 | 87 | 0.0 | 3.5 | 0.00 | 0.00 | 0.00 | 66 | 1014.8 |
| 20260508202510 | 69 | 111 | 0.9 | 6.1 | 0.00 | 0.00 | 0.00 | 66 | 1014.7 |
| 20260508202008 | 69 | 48 | 0.9 | 6.1 | 0.00 | 0.00 | 0.00 | 64 | 1014.9 |
| 20260508201528 | 70 | 28 | 1.7 | 3.5 | 0.00 | 0.00 | 0.00 | 63 | 1015.0 |
| 20260508201009 | 70 | 192 | 0.0 | 4.3 | 0.00 | 0.00 | 0.00 | 63 | 1015.1 |
| 20260508200509 | 70 | 92 | 0.9 | 4.3 | 0.00 | 0.00 | 0.00 | 65 | 1015.3 |
| 20260508200024 | 70 | 94 | 0.0 | 5.2 | 0.00 | 0.00 | 0.00 | 65 | 1015.3 |
| 20260508195510 | 70 | 152 | 0.9 | 5.2 | 0.00 | 0.00 | 0.00 | 63 | 1015.3 |
| 20260508195007 | 71 | 67 | 1.7 | 8.7 | 0.00 | 0.00 | 0.00 | 62 | 1015.5 |
| 20260508194527 | 71 | 183 | 1.7 | 8.7 | 0.00 | 0.00 | 0.00 | 63 | 1015.6 |
| 20260508194008 | 71 | 194 | 0.9 | 5.2 | 0.00 | 0.01 | 0.00 | 62 | 1015.6 |
| 20260508193509 | 71 | 146 | 0.9 | 5.2 | 0.00 | 0.01 | 0.00 | 62 | 1015.6 |
| 20260508193028 | 71 | 65 | 0.9 | 5.2 | 0.00 | 0.01 | 0.00 | 63 | 1015.3 |
| 20260508192509 | 71 | 89 | 1.7 | 4.3 | 0.00 | 0.02 | 0.00 | 62 | 1015.3 |
| 20260508192009 | 71 | 80 | 0.9 | 7.0 | 0.00 | 0.05 | 0.00 | 62 | 1015.5 |
| 20260508191517 | 71 | 68 | 1.7 | 7.0 | 0.00 | 0.05 | 0.00 | 62 | 1015.6 |
| 20260508191008 | 71 | 51 | 2.6 | 7.0 | 0.00 | 0.05 | 0.00 | 60 | 1015.6 |
| 20260508190507 | 71 | 96 | 0.9 | 3.5 | 0.00 | 0.05 | 0.00 | 61 | 1015.6 |
| 20260508190004 | 72 | 225 | 0.9 | 6.1 | 0.00 | 0.05 | 0.00 | 61 | 1015.6 |
| 20260508185506 | 73 | 114 | 1.7 | 6.1 | 0.00 | 0.05 | 0.00 | 60 | 1015.6 |
| 20260508185005 | 73 | 115 | 2.6 | 5.2 | 0.00 | 0.05 | 0.00 | 59 | 1015.7 |
| 20260508184509 | 73 | 114 | 0.9 | 3.5 | 0.00 | 0.05 | 0.00 | 61 | 1015.7 |
| 20260508184002 | 73 | 112 | 1.7 | 3.5 | 0.00 | 0.05 | 0.00 | 61 | 1015.9 |
| 20260508183504 | 72 | 152 | 0.9 | 4.3 | 0.00 | 0.05 | 0.00 | 61 | 1015.9 |
| 20260508183010 | 72 | 190 | 0.9 | 5.2 | 0.00 | 0.05 | 0.00 | 61 | 1015.8 |
| 20260508182504 | 72 | 111 | 0.9 | 5.2 | 0.00 | 0.05 | 0.00 | 60 | 1015.8 |
| 20260508182005 | 72 | 246 | 1.7 | 7.0 | 0.00 | 0.05 | 0.00 | 60 | 1016.0 |
| 20260508181518 | 73 | 67 | 2.6 | 7.0 | 0.00 | 0.05 | 0.00 | 59 | 1016.1 |
| 20260508181010 | 73 | 104 | 0.9 | 3.5 | 0.00 | 0.05 | 0.00 | 59 | 1016.2 |
| 20260508180508 | 73 | 121 | 1.7 | 7.0 | 0.00 | 0.05 | 0.00 | 58 | 1016.2 |
| 20260508180020 | 74 | 80 | 0.9 | 7.0 | 0.00 | 0.05 | 0.00 | 58 | 1016.3 |
| 20260508175513 | 74 | 94 | 0.9 | 3.5 | 0.00 | 0.05 | 0.00 | 59 | 1016.4 |
| 20260508175004 | 74 | 151 | 0.9 | 5.2 | 0.00 | 0.05 | 0.00 | 57 | 1016.4 |
| 20260508174504 | 74 | 186 | 1.7 | 5.2 | 0.00 | 0.05 | 0.00 | 56 | 1016.3 |
| 20260508174005 | 74 | 109 | 0.9 | 4.3 | 0.00 | 0.05 | 0.00 | 58 | 1016.4 |
| 20260508173505 | 74 | 83 | 1.7 | 4.3 | 0.00 | 0.05 | 0.00 | 56 | 1016.4 |
| 20260508173008 | 75 | 171 | 1.7 | 5.2 | 0.00 | 0.05 | 0.00 | 54 | 1016.5 |
| 20260508172503 | 75 | 128 | 1.7 | 5.2 | 0.00 | 0.05 | 0.00 | 56 | 1016.7 |
| 20260508172004 | 75 | 105 | 0.9 | 5.2 | 0.00 | 0.05 | 0.00 | 53 | 1016.7 |
| 20260508171512 | 75 | 111 | 0.0 | 3.5 | 0.00 | 0.05 | 0.00 | 55 | 1016.6 |
| 20260508171006 | 75 | 190 | 0.0 | 3.5 | 0.00 | 0.05 | 0.00 | 55 | 1016.8 |
| 20260508170507 | 75 | 169 | 0.0 | 3.5 | 0.00 | 0.05 | 0.00 | 55 | 1016.8 |
| 20260508170020 | 74 | 148 | 0.0 | 3.5 | 0.00 | 0.05 | 0.00 | 58 | 1016.6 |
| 20260508165507 | 74 | 110 | 0.9 | 4.3 | 0.00 | 0.05 | 0.00 | 54 | 1016.5 |
| 20260508165008 | 74 | 89 | 0.0 | 4.3 | 0.00 | 0.05 | 0.00 | 52 | 1016.6 |
| 20260508164522 | 74 | 46 | 0.9 | 4.3 | 0.00 | 0.05 | 0.00 | 51 | 1016.8 |
| 20260508164009 | 74 | 113 | 0.0 | 3.5 | 0.00 | 0.05 | 0.00 | 53 | 1016.9 |
| 20260508163505 | 74 | 71 | 1.7 | 3.5 | 0.00 | 0.05 | 0.00 | 53 | 1017.0 |
| 20260508163012 | 73 | 163 | 0.0 | 3.5 | 0.00 | 0.05 | 0.00 | 53 | 1017.0 |
| 20260508162505 | 73 | 118 | 0.0 | 3.5 | 0.00 | 0.05 | 0.00 | 51 | 1017.1 |
| 20260508162004 | 73 | 88 | 0.9 | 3.5 | 0.00 | 0.05 | 0.00 | 50 | 1017.2 |
| 20260508161514 | 72 | 59 | 0.0 | 2.6 | 0.00 | 0.05 | 0.00 | 53 | 1017.2 |
| 20260508161004 | 72 | 221 | 0.9 | 3.5 | 0.00 | 0.05 | 0.00 | 53 | 1017.4 |
| 20260508160503 | 71 | 71 | 0.9 | 7.0 | 0.00 | 0.05 | 0.00 | 54 | 1017.5 |
| 20260508160016 | 71 | 217 | 0.9 | 7.0 | 0.00 | 0.05 | 0.00 | 50 | 1017.5 |
| 20260508155508 | 71 | 140 | 0.9 | 5.2 | 0.00 | 0.05 | 0.00 | 52 | 1017.6 |
| 20260508155008 | 71 | 314 | 0.0 | 5.2 | 0.00 | 0.05 | 0.00 | 52 | 1017.8 |
| 20260508154522 | 71 | 123 | 0.9 | 3.5 | 0.00 | 0.05 | 0.00 | 54 | 1017.7 |
| 20260508154011 | 71 | 85 | 0.9 | 7.0 | 0.00 | 0.05 | 0.00 | 54 | 1017.7 |
| 20260508153508 | 70 | 64 | 0.0 | 7.0 | 0.00 | 0.05 | 0.00 | 53 | 1017.8 |
| 20260508153047 | 70 | 67 | 0.0 | 3.5 | 0.00 | 0.05 | 0.00 | 51 | 1017.7 |
| 20260508152509 | 70 | 65 | 0.9 | 5.2 | 0.00 | 0.05 | 0.00 | 51 | 1017.7 |
| 20260508152005 | 70 | 71 | 1.7 | 5.2 | 0.00 | 0.05 | 0.00 | 50 | 1017.8 |
| 20260508151508 | 70 | 161 | 0.0 | 6.1 | 0.00 | 0.05 | 0.00 | 53 | 1017.7 |
| 20260508151003 | 69 | 92 | 1.7 | 6.1 | 0.00 | 0.05 | 0.00 | 51 | 1017.7 |